GW0597 Weather Reports


time (UTC)temp
F
wind
direction
speed
knots
gust
knots
rain 1hr
in
rain 24hr
in
rain mn
in
humidity
%
barometer
mb
20260504001551 53 0 0.0 5.2 0.00 0.00 0.00 49 1011.6
20260504000114 54 93 0.9 6.1 0.00 0.00 0.00 47 1011.5
20260503234555 54 174 0.9 5.2 0.00 0.00 0.00 46 1011.5
20260503233054 55 194 0.9 6.1 0.00 0.00 0.00 48 1011.6
20260503231553 55 198 0.9 5.2 0.00 0.00 0.00 46 1011.6
20260503224556 55 173 0.0 5.2 0.00 0.00 0.00 46 1011.5
20260503223058 56 204 0.9 8.7 0.00 0.00 0.00 46 1011.5
20260503221553 56 284 2.6 8.7 0.00 0.00 0.00 44 1011.5
20260503220121 56 0 2.6 8.7 0.00 0.00 0.00 43 1011.5
20260503214554 57 216 1.7 9.6 0.00 0.00 0.00 47 1011.5
20260503213057 57 263 0.9 5.2 0.00 0.00 0.00 42 1011.2
20260503211559 57 275 0.9 11.3 0.00 0.00 0.00 44 1011.3
20260503210059 57 320 1.7 7.8 0.00 0.00 0.00 43 1011.2
20260503204604 56 225 0.9 7.8 0.00 0.00 0.00 45 1011.6
20260503203100 56 245 2.6 8.7 0.00 0.00 0.00 42 1011.7
20260503201554 56 147 2.6 9.6 0.00 0.00 0.00 43 1011.7
20260503194559 56 202 3.5 9.6 0.00 0.00 0.00 43 1012.2
20260503193100 56 188 2.6 9.6 0.00 0.00 0.00 41 1012.4
20260503191558 55 136 2.6 11.3 0.00 0.00 0.00 42 1012.6
20260503190055 55 252 2.6 7.0 0.00 0.00 0.00 43 1012.8
20260503184604 56 240 1.7 7.8 0.00 0.00 0.00 43 1013.1
20260503183055 55 350 2.6 8.7 0.00 0.00 0.00 44 1013.5
20260503181554 55 237 1.7 7.8 0.00 0.00 0.00 42 1013.5
20260503180106 55 5 3.5 9.6 0.00 0.00 0.00 44 1013.5
20260503174555 54 118 2.6 14.8 0.00 0.00 0.00 43 1013.7
20260503173106 54 286 2.6 7.8 0.00 0.00 0.00 44 1013.6
20260503171554 54 163 0.9 7.0 0.00 0.00 0.00 45 1013.9
20260503081554 25 0 0.0 0.0 0.00 0.02 0.00 90 1015.2
20260503071557 26 0 0.0 0.0 0.00 0.02 0.00 90 1015.1
20260503060113 27 0 0.0 0.0 0.00 0.02 0.00 89 1015.4
20260503054614 27 0 0.0 0.0 0.00 0.02 0.00 89 1015.4
20260503053054 27 0 0.0 0.0 0.00 0.02 0.00 89 1015.4
20260503051552 28 0 0.0 0.0 0.00 0.02 0.00 89 1015.4
20260503050055 28 0 0.0 0.0 0.00 0.02 0.00 88 1015.6
20260503044552 28 0 0.0 0.0 0.00 0.02 0.00 87 1015.5
20260503043053 29 0 0.0 0.0 0.00 0.02 0.00 87 1015.5
20260503041556 29 0 0.0 0.0 0.00 0.02 0.00 86 1015.5
20260503040059 30 0 0.0 0.0 0.00 0.02 0.00 85 1015.5
20260503034553 30 0 0.0 0.0 0.00 0.02 0.02 85 1015.6
20260503033053 31 0 0.0 0.0 0.00 0.02 0.02 84 1015.5
20260503031552 31 0 0.0 0.0 0.00 0.02 0.02 84 1015.7
20260503024555 33 0 0.0 0.0 0.00 0.02 0.02 81 1015.8
20260503023100 33 0 0.0 0.0 0.00 0.02 0.02 81 1015.9
20260503021559 33 0 0.0 0.0 0.00 0.02 0.02 80 1016.0
20260503020058 34 0 0.0 0.0 0.00 0.02 0.02 79 1015.8
20260503014556 34 0 0.0 0.0 0.00 0.02 0.02 78 1015.8
20260503013053 35 0 0.0 0.0 0.00 0.02 0.02 78 1015.9
20260503011557 36 0 0.0 0.0 0.00 0.02 0.02 75 1015.8
20260503010104 37 0 0.0 0.9 0.00 0.02 0.02 71 1015.6
20260503004608 38 130 0.0 1.7 0.00 0.02 0.02 65 1015.6